Location: Saint-Hippolyte
(43.6394°N, 4.7559°E)
Time: 15:59:04
(UTC+00:00)

ADEOS Rocket - Pass Details

Date: 24 October 2020
Orbit: 859 x 1306 km, 98.7° (Epoch: 23 November)

Event Time Altitude Azimuth Distance (km) Brightness Sun altitude
Rises 17:18:05 0° 9° (N) 3,677 5.8 -7.1°
Reaches altitude 10° 17:20:29 10° 5° (N) 2,781 5.2 -7.5°
Maximum altitude 17:26:35 55° 290° (WNW) 1,277 4.0 -8.6°
Drops below altitude 10° 17:33:20 10° 215° (SW) 3,068 6.2 -9.8°
Sets 17:36:06 0° 211° (SSW) 4,086 6.8 -10.3°
